Regional Weather Roundup
Issued by NWS

Home | Current Version | Previous Version | Text Only | Print | Product List | Glossary Off
Versions: 1 2 3 4 5 6 7 8 9 10 11 12 13 14 15 16 17 18 19 20 21 22 23 24 25 26 27 28 29 30 31 32 33 34 35 36 37 38 39 40 41 42 43 44 45 46 47 48 49 50

000
ASUS45 KABQ 280101
RWRNM
NEW MEXICO REGIONAL WEATHER ROUNDUP
NATIONAL WEATHER SERVICE ALBUQUERQUE NM
700 PM MDT FRI MAY 27 2016

NOTE: "FAIR" MEANS FEW OR NO CLOUDS BELOW 12,000 FEET AGL WITH NO
       SIGNIFICANT WEATHER OR OBSTRUCTIONS TO VISION.

      THIS PRODUCT IS RELEASED AS TWO VERSIONS.  ONE VERSION NEAR
      THE TOP OF THE HOUR CONTAINING PRELIMINARY DATA FROM ALBUQUERQUE
      AND OTHER STATIONS.  A FINAL VERSION WITH ADDITIONAL DATA IS
      ISSUED ABOUT 10 MINUTES AFTER THE HOUR.

NMZ501-503-504-510>518-280200-
NORTHWEST PLATEAU/NORTHCENTRAL MOUNTAINS

CITY           SKY/WX    TMP DP  RH WIND       PRES   REMARKS
FARMINGTON     FAIR      71  12  10 W13G24    29.89R
SANTA FE       FAIR      64  30  27 N23G29    29.91R
TAOS           FAIR      54  36  50 N3        29.99S

$$
NMZ402-403-502-505>509-280200-
WESTCENTRAL MOUNTAINS/SOUTHWEST MOUNTAINS

CITY           SKY/WX    TMP DP  RH WIND       PRES   REMARKS
GALLUP         FAIR      66  21  18 W18       29.96S
GRANTS         FAIR      67  21  17 NW18      29.98R
SILVER CITY      N/A     73  16  11 W17G26    29.96R

$$
NMZ407-409-411-412-280200-
SOUTHERN DESERTS

CITY           SKY/WX    TMP DP  RH WIND       PRES   REMARKS
LORDSBURG      FAIR      79  21  11 NW10G18   29.88S
DEMING         FAIR      79  16   9 W20G28    29.88R
HOLLOMAN AFB   FAIR      81  16   8 SW10      29.81S
ALAMOGORDO     FAIR      79  19  11 S5        29.84S
T OR C         FAIR      79  20  11 NW5       29.84R

$$
NMZ519>523-280200-
CENTRAL VALLEYS/CENTRAL HIGHLANDS

CITY           SKY/WX    TMP DP  RH WIND       PRES   REMARKS
ALBUQUERQUE    PTSUNNY   71  26  18 SW21G38   29.88R
DOUBLE EAGLE   PTSUNNY   72  27  18 NW10G22   29.91R
CLINES CORNERS FAIR      65  18  16 W22G32    29.93R
BELEN          PTSUNNY   76  20  12 NW9G21    29.88R
SOCORRO        NOT AVBL

$$
NMZ524>526-539-540-280200-
SOUTHCENTRAL MOUNTAINS

CITY           SKY/WX    TMP DP  RH WIND       PRES   REMARKS
RUIDOSO        NOT AVBL

$$
NMZ527>531-280200-
NORTHEAST HIGHLANDS/NORTHEAST PLAINS

CITY           SKY/WX    TMP DP  RH WIND       PRES   REMARKS
LAS VEGAS      PTSUNNY   59  31  34 NE8       29.93R
RATON          PTSUNNY   58  37  45 N8        29.94R
CLAYTON        FAIR      65  38  36 NW16G24   29.85R

$$
NMZ532>537-280200-
EASTCENTRAL PLAINS

CITY           SKY/WX    TMP DP  RH WIND       PRES   REMARKS
TUCUMCARI      FAIR      74  32  21 N15G24    29.77R
CANNON AFB     FAIR      76  31  18 S3        29.79S
CLOVIS AIRPORT FAIR      75  34  22 CALM      29.80R

$$
NMZ028-029-538-280200-
SOUTHEAST PLAINS

CITY           SKY/WX    TMP DP  RH WIND       PRES   REMARKS
ROSWELL        FAIR      83  22  10 NE6       29.77R
ARTESIA        FAIR      84  23  10 VRB6      29.77R
CARLSBAD       FAIR      84  18   8 W18       29.76R
HOBBS          FAIR      82  18   9 SW12      29.80S


$$




USA.gov is the U.S. government's official web portal to all federal, state and local government web resources and services.